Find Starlink 33635

NORAD ID: 63065 Int'l Des: 2025-035 Owner: SPXS Country: US Constellation: starlink operational
LEOCIRCULAR

現在のビュー

3D地球を読み込み中...

About Starlink 33635

Starlink 33635 (NORAD 63065) is a starlink constellation satellite (v2 mini) launched Feb 21, 2025 by SPXS of US. It operates in LEO, CIRCULAR orbit with a mass of 575.00 kg.

Starlink 33635について

説明を読み込み中...

次回通過

Passes for default location (London). Set your location on the main map for personalized predictions.

高度履歴

Loading altitude history...

軌道要素

1 63065U 25035P 26169.40817144 .00012640 00000-0 46768-3 0 9995
2 63065 43.0035 298.2476 0001820 262.6370 97.4275 15.27607901 75130
Epoch: Jun 18, 2026 • Age: 21 hours

現在のステータス

高度 493.4 km
速度 7.62 km/s
衛星直下点 -39.10°S, 156.61°E
打ち上げ日 Feb 21, 2025
運用期間 1.3 years
タイプ internet

技術仕様

分類 Payload
質量 575.00 kg
乾燥質量 530.00 kg
総質量 575.00 kg
長さ 0.30 m
直径 4.10 m
スパン 29.00 m
形状 Box + pan
製造者 SPXS
バスタイプ Starlink V2MO
フェーズステータス In Orbit
所有者/国 SPXS/US

Most Searched